Location: Evensen
(52.5775°N, 9.5258°E)
Time: 20:04:01
(UTC+00:00)

Cosmos 1655 Rocket - Pass Details

Date: 15 May 2026
Orbit: 970 x 1005 km, 83.0° (Epoch: 8 June)

Event Time Altitude Azimuth Distance (km) Brightness Sun altitude
Rises 23:11:58 0° 350° (N) 3,678 8.6 -18.4°
Reaches altitude 10° 23:14:29 10° 351° (N) 2,729 7.6 -18.4°
Maximum altitude 23:20:45 78° 79° (E) 1,003 4.0 -18.4°
Enters shadow 23:24:16 28° 162° (SSE) 1,745 4.8 -18.4°
